• en France
  • Liste des pays
  • À 7 jours
  • Température de l'eau
  • Carte satellitaire
  • Carte météo
  • Widgets météo
  • user-avatar
    Se connecter

    Météo par heure à Hadakolob

    Ce jour, 22 Août, Mercredi

    Heure Température Précipitation Vent Pression Humidité
    00:00 +12°C° 0 mm 2 m/s 625 mmHg 65%
    01:00 +12°C° 0 mm 2 m/s 625 mmHg 64%
    02:00 +12°C° 0 mm 2 m/s 624 mmHg 63%
    03:00 +12°C° 0 mm 2 m/s 625 mmHg 64%
    04:00 +13°C° 0 mm 2 m/s 625 mmHg 65%
    05:00 +13°C° 0 mm 2 m/s 625 mmHg 65%
    06:00 +13°C° 0 mm 1 m/s 625 mmHg 65%
    07:00 +15°C° 0 mm 1 m/s 626 mmHg 60%
    08:00 +18°C° 0 mm 1 m/s 626 mmHg 55%
    09:00 +20°C° 0 mm 1 m/s 627 mmHg 50%
    10:00 +21°C° 0,1 mm 1 m/s 627 mmHg 49%
    11:00 +21°C° 0,1 mm 2 m/s 627 mmHg 48%
    12:00 +21°C° 0,1 mm 2 m/s 627 mmHg 47%
    13:00 +21°C° 0,3 mm 2 m/s 627 mmHg 49%
    14:00 +21°C° 0,3 mm 2 m/s 627 mmHg 51%
    15:00 +21°C° 0,3 mm 2 m/s 627 mmHg 54%
    16:00 +20°C° 0,3 mm 2 m/s 627 mmHg 60%
    17:00 +20°C° 0,3 mm 1 m/s 626 mmHg 66%
    18:00 +19°C° 0,3 mm 1 m/s 626 mmHg 72%
    19:00 +18°C° 0,1 mm 1 m/s 626 mmHg 75%
    20:00 +16°C° 0,1 mm 1 m/s 626 mmHg 79%
    21:00 +15°C° 0,1 mm 1 m/s 626 mmHg 82%
    22:00 +15°C° 0,1 mm 1 m/s 626 mmHg 83%
    23:00 +14°C° 0,1 mm 1 m/s 626 mmHg 83%

    Demain, 23 Août, Jeudi

    Heure Température Précipitation Vent Pression Humidité
    00:00 +14°C° 0,1 mm 1 m/s 626 mmHg 84%
    01:00 +13°C° 0 mm 1 m/s 626 mmHg 84%
    02:00 +13°C° 0 mm 1 m/s 625 mmHg 83%
    03:00 +12°C° 0 mm 1 m/s 625 mmHg 83%
    04:00 +13°C° 0 mm 1 m/s 625 mmHg 82%
    05:00 +13°C° 0 mm 1 m/s 626 mmHg 80%
    06:00 +13°C° 0 mm 1 m/s 626 mmHg 79%
    07:00 +15°C° 0 mm 1 m/s 627 mmHg 71%
    08:00 +18°C° 0 mm 1 m/s 628 mmHg 63%
    09:00 +20°C° 0 mm 1 m/s 628 mmHg 56%
    10:00 +20°C° 0 mm 2 m/s 628 mmHg 54%
    11:00 +21°C° 0 mm 2 m/s 629 mmHg 53%
    12:00 +23°C° 0 mm 2 m/s 629 mmHg 51%
    13:00 +21°C° 0,1 mm 2 m/s 629 mmHg 53%
    14:00 +21°C° 0,1 mm 2 m/s 628 mmHg 55%
    15:00 +21°C° 0,1 mm 2 m/s 628 mmHg 57%
    16:00 +21°C° 0 mm 1 m/s 628 mmHg 60%
    17:00 +20°C° 0 mm 1 m/s 628 mmHg 64%
    18:00 +19°C° 0 mm 1 m/s 627 mmHg 67%
    19:00 +18°C° 0 mm 1 m/s 627 mmHg 71%
    20:00 +16°C° 0 mm 1 m/s 627 mmHg 74%
    21:00 +14°C° 0 mm 1 m/s 627 mmHg 78%
    22:00 +14°C° 0 mm 1 m/s 627 mmHg 78%
    23:00 +13°C° 0 mm 1 m/s 627 mmHg 79%

    Après-demain, 24 Août, Vendredi

    Heure Température Précipitation Vent Pression Humidité
    00:00 +13°C° 0 mm 1 m/s 627 mmHg 79%
    01:00 +13°C° 0 mm 1 m/s 627 mmHg 78%
    02:00 +12°C° 0 mm 2 m/s 627 mmHg 77%
    03:00 +12°C° 0 mm 2 m/s 626 mmHg 76%
    04:00 +13°C° 0 mm 2 m/s 627 mmHg 75%
    05:00 +13°C° 0 mm 2 m/s 627 mmHg 75%
    06:00 +13°C° 0 mm 2 m/s 627 mmHg 74%
    07:00 +15°C° 0 mm 2 m/s 628 mmHg 67%
    08:00 +18°C° 0 mm 2 m/s 628 mmHg 60%
    09:00 +20°C° 0 mm 2 m/s 629 mmHg 52%
    10:00 +21°C° 0 mm 2 m/s 629 mmHg 51%
    11:00 +23°C° 0 mm 2 m/s 629 mmHg 49%
    12:00 +24°C° 0 mm 2 m/s 629 mmHg 48%
    13:00 +24°C° 0,1 mm 2 m/s 629 mmHg 49%
    14:00 +24°C° 0,1 mm 2 m/s 629 mmHg 50%
    15:00 +23°C° 0,1 mm 2 m/s 628 mmHg 51%
    16:00 +21°C° 0,1 mm 2 m/s 628 mmHg 56%
    17:00 +20°C° 0,1 mm 2 m/s 628 mmHg 61%
    18:00 +20°C° 0,1 mm 1 m/s 627 mmHg 66%
    19:00 +18°C° 0 mm 1 m/s 627 mmHg 67%
    20:00 +16°C° 0 mm 2 m/s 627 mmHg 68%
    21:00 +14°C° 0 mm 2 m/s 626 mmHg 69%
    22:00 +14°C° 0 mm 2 m/s 626 mmHg 69%
    23:00 +14°C° 0 mm 2 m/s 626 mmHg 68%

    25 Août, Samedi

    Heure Température Précipitation Vent Pression Humidité
    00:00 +13°C° 0 mm 2 m/s 626 mmHg 68%
    01:00 +13°C° 0 mm 2 m/s 625 mmHg 70%
    02:00 +13°C° 0 mm 2 m/s 625 mmHg 73%
    03:00 +13°C° 0 mm 2 m/s 625 mmHg 75%
    04:00 +13°C° 0 mm 2 m/s 625 mmHg 75%
    05:00 +13°C° 0 mm 2 m/s 625 mmHg 76%
    06:00 +14°C° 0 mm 2 m/s 625 mmHg 76%
    07:00 +16°C° 0 mm 2 m/s 626 mmHg 68%
    08:00 +20°C° 0 mm 1 m/s 627 mmHg 61%
    09:00 +22°C° 0 mm 1 m/s 627 mmHg 53%
    10:00 +23°C° 0,1 mm 2 m/s 627 mmHg 52%
    11:00 +24°C° 0,1 mm 2 m/s 627 mmHg 50%
    12:00 +25°C° 0,1 mm 2 m/s 627 mmHg 49%
    13:00 +24°C° 0,4 mm 2 m/s 627 mmHg 50%
    14:00 +24°C° 0,4 mm 2 m/s 627 mmHg 51%
    15:00 +24°C° 0,4 mm 2 m/s 626 mmHg 52%
    16:00 +23°C° 0,1 mm 2 m/s 626 mmHg 57%
    17:00 +22°C° 0,1 mm 1 m/s 626 mmHg 62%
    18:00 +21°C° 0,1 mm 1 m/s 625 mmHg 66%
    19:00 +19°C° 0 mm 1 m/s 625 mmHg 70%
    20:00 +18°C° 0 mm 1 m/s 625 mmHg 73%
    21:00 +15°C° 0 mm 1 m/s 624 mmHg 77%
    22:00 +15°C° 0 mm 1 m/s 624 mmHg 76%
    23:00 +15°C° 0 mm 1 m/s 624 mmHg 74%

    26 Août, Dimanche

    Heure Température Précipitation Vent Pression Humidité
    00:00 +14°C° 0 mm 2 m/s 624 mmHg 73%
    01:00 +14°C° 0 mm 2 m/s 624 mmHg 71%
    02:00 +13°C° 0 mm 2 m/s 623 mmHg 70%
    03:00 +13°C° 0 mm 2 m/s 623 mmHg 68%
    04:00 +13°C° 0 mm 2 m/s 623 mmHg 64%
    05:00 +14°C° 0 mm 2 m/s 624 mmHg 61%
    06:00 +14°C° 0 mm 2 m/s 624 mmHg 58%
    07:00 +18°C° 0 mm 1 m/s 625 mmHg 52%
    08:00 +20°C° 0 mm 1 m/s 625 mmHg 47%
    09:00 +23°C° 0 mm 1 m/s 626 mmHg 41%
    10:00 +24°C° 0 mm 2 m/s 626 mmHg 40%
    11:00 +25°C° 0 mm 2 m/s 626 mmHg 40%
    12:00 +25°C° 0 mm 2 m/s 626 mmHg 39%
    13:00 +25°C° 0 mm 2 m/s 626 mmHg 40%
    14:00 +25°C° 0 mm 2 m/s 626 mmHg 40%
    15:00 +25°C° 0 mm 2 m/s 625 mmHg 41%
    16:00 +24°C° 0 mm 2 m/s 625 mmHg 46%
    17:00 +21°C° 0 mm 2 m/s 625 mmHg 51%
    18:00 +21°C° 0 mm 1 m/s 624 mmHg 57%
    19:00 +19°C° 0 mm 1 m/s 624 mmHg 58%
    20:00 +18°C° 0 mm 1 m/s 623 mmHg 60%
    21:00 +15°C° 0 mm 1 m/s 623 mmHg 61%
    22:00 +15°C° 0 mm 1 m/s 623 mmHg 58%
    23:00 +14°C° 0 mm 2 m/s 623 mmHg 54%

    27 Août, Lundi

    Heure Température Précipitation Vent Pression Humidité
    00:00 +14°C° 0 mm 2 m/s 623 mmHg 50%
    01:00 +14°C° 0 mm 2 m/s 623 mmHg 49%
    02:00 +14°C° 0 mm 2 m/s 622 mmHg 48%
    03:00 +14°C° 0 mm 2 m/s 622 mmHg 47%
    04:00 +14°C° 0 mm 2 m/s 623 mmHg 50%
    05:00 +14°C° 0 mm 2 m/s 623 mmHg 53%
    06:00 +14°C° 0 mm 1 m/s 623 mmHg 56%
    07:00 +18°C° 0 mm 1 m/s 624 mmHg 52%
    08:00 +20°C° 0 mm 1 m/s 625 mmHg 47%
    09:00 +22°C° 0 mm 1 m/s 626 mmHg 43%
    10:00 +23°C° 0 mm 2 m/s 626 mmHg 43%
    11:00 +24°C° 0 mm 2 m/s 626 mmHg 43%
    12:00 +25°C° 0 mm 2 m/s 626 mmHg 43%
    13:00 +24°C° 0,5 mm 2 m/s 625 mmHg 45%
    14:00 +24°C° 0,5 mm 2 m/s 625 mmHg 47%
    15:00 +24°C° 0,5 mm 2 m/s 625 mmHg 49%
    16:00 +21°C° 0,3 mm 2 m/s 625 mmHg 54%
    17:00 +20°C° 0,3 mm 2 m/s 625 mmHg 59%
    18:00 +20°C° 0,3 mm 1 m/s 624 mmHg 63%
    19:00 +18°C° 0,1 mm 1 m/s 624 mmHg 68%
    20:00 +16°C° 0,1 mm 1 m/s 624 mmHg 72%
    21:00 +14°C° 0,1 mm 1 m/s 624 mmHg 77%
    22:00 +14°C° 0,1 mm 1 m/s 624 mmHg 76%
    23:00 +14°C° 0,1 mm 1 m/s 624 mmHg 76%
    Voir plus